Location: Chiroubles
(46.1812°N, 4.6660°E)
Time: 15:35:48
(UTC+00:00)

ISS - Pass Details

Date: 04 November 2020
Orbit: 418 x 420 km, 51.6° (Epoch: 30 November)

Event Time Altitude Azimuth Distance (km) Brightness Sun altitude
Exits shadow 04:55:32 27° 326° (NW) 838 -2.6 -16.2°
Maximum altitude 04:56:47 39° 14° (NNE) 647 -2.8 -15.9°
Drops below altitude 10° 05:00:00 10° 85° (E) 1,506 0.4 -15.4°
Sets 05:02:06 0° 93° (E) 2,340 1.9 -15.0°
